Regional Weather Roundup
Issued by NWS State College, PA

Home | Current Version | Previous Version | Graphics & Text | Print | Product List | Glossary Off
Versions: 1 2 3 4 5 6 7 8 9 10 11 12 13 14 15 16 17 18 19 20 21 22 23 24 25 26 27 28 29 30 31 32 33 34 35 36 37 38 39 40 41 42 43 44 45 46 47 48 49 50

000
ASUS41 KCTP 181210
RWRCTP

REGIONAL WEATHER ROUNDUP
NATIONAL WEATHER SERVICE STATE COLLEGE PA
700 AM EST WED JAN 18 2017

Note: "fair" indicates few or no clouds below 12,000 feet with no
significant weather and/or obstructions to visibility.

* = STATION THAT DOES NOT REPORT PRECIPITATION /E.G. RAIN...SNOW...ETC/
    THUNDER OR FOG.

PAZ002>004-007>009-013>016-020>023-029>032-181300-
WESTERN PENNSYLVANIA

CITY           SKY/WX    TMP DP  RH WIND       PRES   REMARKS
ERIE           CLOUDY    37  35  92 W12G21    29.98R FOG
MEADVILLE      LGT RAIN  37  34  89 W9        29.97R FOG
FRANKLIN*        N/A     37  34  87 W13G18    29.97R
NEW CASTLE     LGT RAIN  41  38  89 VRB7      30.00R
BEAVER COUNTY  DRIZZLE   41  39  93 NW7       29.99
BUTLER*        CLOUDY    41  37  87 W8        30.00R
PITTSBURGH INT LGT RAIN  42  41  96 W15       29.98R FOG
PITTSBURGH     LGT RAIN  43  39  86 NW10G21   29.97R FOG
INDIANA*       CLOUDY    43  43 100 NW9G15    29.97R FOG
LATROBE        LGT RAIN  45  45 100 W12       29.98R FOG
WASHINGTON CO* NOT AVBL
$$

PAZ004>006-010>012-017>019-024>028-033>037-041-042-045-046-049>053-181300-
CENTRAL PENNSYLVANIA

CITY           SKY/WX    TMP DP  RH WIND       PRES   REMARKS
BRADFORD       CLOUDY    37  36  96 W14G23    29.89R
DUBOIS         LGT RAIN  40  37  89 W9        29.92R FOG
CLEARFIELD     LGT RAIN  43  41  93 NW8       29.91R FOG
JOHNSTOWN      LGT RAIN  41  41 100 W14       29.91R FOG
ALTOONA        LGT RAIN  46  41  82 W9        29.91R
STATE COLLEGE  CLOUDY    39  39 100 W3        29.90R FOG
WILLIAMSPORT   FOG       38  37  97 CALM      29.91R VSB 1/4
SELINSGROVE    FOG       36  36 100 CALM      29.92R VSB 1/4
FT INDIANTOWN  CLOUDY    37  37 100 CALM      29.91S FOG
CAPITAL CITY   FOG       40  38  93 CALM      29.92S VSB 3/4
HARRISBURG     FOG       39  39 100 CALM      29.91F VSB 1
YORK           CLOUDY    39  39 100 CALM      29.91S FOG
$$

PAZ038>040-043-044-047-048-054-055-060>062-067>071-181300-
EASTERN PENNSYLVANIA

CITY           SKY/WX    TMP DP  RH WIND       PRES   REMARKS
SCRANTON       LGT RAIN  35  35 100 CALM      29.88S FOG
MOUNT POCONO   FRZ RAIN  32  31  96 CALM      29.85R VSB 1/2
ALLENTOWN      CLOUDY    37  34  89 CALM      29.92R
QUAKERTOWN*    CLOUDY    36  36 100 N3        29.91S
READING        CLOUDY    38  35  89 N5        29.91S
LANCASTER      FOG       39  39 100 W5        29.91S VSB 1/4
COATESVILLE    FOG       39  39 100 NW6G12    29.90S VSB 1/4
POTTSTOWN      CLOUDY    37  36  96 N5        29.92S
BLUE BELL      CLOUDY    37  37 100 CALM      29.90R
DOYLESTOWN     CLOUDY    38  37  97 N5        29.90R FOG
WILLOW GROVE   NOT AVBL
NORTH PHILA    CLOUDY    40  39  97 N10       29.92R
PHILADELPHIA   CLOUDY    41  39  93 N8        29.91R
$$



USA.gov is the U.S. government's official web portal to all federal, state and local government web resources and services.